| time (UTC) | temp F | wind direction | speed MPH | gust MPH | rain 1hr in | rain 24hr in | rain mn in | humidity % | barometer mb |
| 20260507135521 | 45 | 234 | 6.0 | 10.0 | 0.00 | 0.75 | 0.00 | 50 | 1017.4 |
| 20260507134519 | 44 | 234 | 5.0 | 10.0 | 0.00 | 0.75 | 0.00 | 51 | 1016.6 |
| 20260507133520 | 43 | 215 | 6.0 | 10.0 | 0.00 | 0.75 | 0.00 | 51 | 1016.6 |
| 20260507132519 | 42 | 230 | 5.0 | 9.0 | 0.00 | 0.75 | 0.00 | 53 | 1016.2 |
| 20260507131519 | 41 | 222 | 4.0 | 9.0 | 0.00 | 0.75 | 0.00 | 53 | 1016.0 |
| 20260507130522 | 41 | 208 | 5.0 | 9.0 | 0.00 | 0.75 | 0.00 | 54 | 1015.8 |
| 20260507125521 | 40 | 202 | 5.0 | 9.0 | 0.00 | 0.75 | 0.00 | 54 | 1015.8 |
| 20260507124521 | 39 | 228 | 5.0 | 7.0 | 0.00 | 0.75 | 0.00 | 55 | 1015.7 |
| 20260507123520 | 38 | 210 | 5.0 | 7.0 | 0.00 | 0.75 | 0.00 | 57 | 1015.3 |
| 20260507122521 | 37 | 232 | 5.0 | 7.0 | 0.00 | 0.75 | 0.00 | 59 | 1015.0 |
| 20260507121520 | 36 | 208 | 5.0 | 7.0 | 0.00 | 0.75 | 0.00 | 61 | 1014.8 |
| 20260507120521 | 36 | 202 | 5.0 | 7.0 | 0.00 | 0.75 | 0.00 | 62 | 1014.9 |
| 20260507115520 | 35 | 205 | 5.0 | 7.0 | 0.00 | 0.75 | 0.00 | 63 | 1014.6 |
| 20260507114522 | 35 | 199 | 4.0 | 7.0 | 0.00 | 0.75 | 0.00 | 63 | 1014.6 |
| 20260507113521 | 35 | 216 | 5.0 | 7.0 | 0.00 | 0.75 | 0.00 | 63 | 1014.6 |
| 20260507112520 | 35 | 205 | 4.0 | 7.0 | 0.00 | 0.75 | 0.00 | 63 | 1014.6 |
| 20260507111520 | 35 | 216 | 4.0 | 7.0 | 0.00 | 0.75 | 0.00 | 64 | 1013.8 |
| 20260507110522 | 35 | 217 | 4.0 | 7.0 | 0.00 | 0.75 | 0.00 | 63 | 1013.7 |
| 20260507105522 | 35 | 201 | 4.0 | 7.0 | 0.00 | 0.75 | 0.00 | 63 | 1013.7 |
| 20260507104520 | 36 | 220 | 3.0 | 7.0 | 0.00 | 0.75 | 0.00 | 63 | 1014.1 |
| 20260507103545 | 36 | 221 | 4.0 | 7.0 | 0.00 | 0.75 | 0.00 | 63 | 1014.1 |
| 20260507102521 | 35 | 232 | 5.0 | 7.0 | 0.00 | 0.75 | 0.00 | 64 | 1014.0 |
| 20260507101522 | 35 | 209 | 4.0 | 7.0 | 0.00 | 0.75 | 0.00 | 65 | 1014.4 |
| 20260507100521 | 35 | 217 | 5.0 | 7.0 | 0.00 | 0.75 | 0.00 | 66 | 1014.5 |
| 20260507095520 | 35 | 222 | 5.0 | 7.0 | 0.00 | 0.75 | 0.00 | 66 | 1014.5 |
| 20260507094521 | 35 | 223 | 4.0 | 7.0 | 0.00 | 0.75 | 0.00 | 67 | 1014.5 |
| 20260507093543 | 35 | 224 | 4.0 | 7.0 | 0.00 | 0.75 | 0.00 | 66 | 1014.5 |
| 20260507092522 | 35 | 195 | 4.0 | 7.0 | 0.00 | 0.75 | 0.00 | 66 | 1014.5 |
| 20260507091520 | 35 | 213 | 5.0 | 7.0 | 0.00 | 0.75 | 0.00 | 68 | 1014.5 |
| 20260507090520 | 35 | 210 | 4.0 | 7.0 | 0.00 | 0.75 | 0.00 | 70 | 1014.2 |
| 20260507085521 | 35 | 207 | 5.0 | 10.0 | 0.00 | 0.75 | 0.00 | 71 | 1014.1 |
| 20260507084520 | 35 | 219 | 5.0 | 10.0 | 0.00 | 0.75 | 0.00 | 72 | 1014.1 |
| 20260507083520 | 35 | 203 | 6.0 | 10.0 | 0.00 | 0.75 | 0.00 | 72 | 1014.1 |
| 20260507082520 | 35 | 228 | 5.0 | 10.0 | 0.00 | 0.75 | 0.00 | 73 | 1014.4 |
| 20260507081519 | 34 | 203 | 4.0 | 10.0 | 0.00 | 0.75 | 0.00 | 74 | 1014.4 |
| 20260507080521 | 34 | 215 | 5.0 | 10.0 | 0.00 | 0.75 | 0.00 | 76 | 1014.5 |
| 20260507075523 | 34 | 210 | 6.0 | 10.0 | 0.00 | 0.75 | 0.00 | 78 | 1014.8 |
| 20260507074520 | 34 | 231 | 5.0 | 9.0 | 0.00 | 0.75 | 0.00 | 81 | 1016.2 |
| 20260507073520 | 34 | 203 | 6.0 | 9.0 | 0.00 | 0.75 | 0.00 | 81 | 1016.5 |
| 20260507072520 | 34 | 227 | 5.0 | 9.0 | 0.00 | 0.75 | 0.00 | 82 | 1016.5 |
| 20260507071520 | 33 | 228 | 6.0 | 9.0 | 0.00 | 0.75 | 0.00 | 85 | 1015.1 |
| 20260507070522 | 33 | 244 | 4.0 | 9.0 | 0.00 | 0.75 | 0.00 | 87 | 1014.8 |
| 20260507065520 | 33 | 209 | 6.0 | 8.0 | 0.00 | 0.75 | 0.00 | 89 | 1014.8 |
| 20260507064521 | 33 | 222 | 4.0 | 7.0 | 0.00 | 0.75 | 0.00 | 90 | 1015.1 |
| 20260507063545 | 32 | 200 | 5.0 | 7.0 | 0.00 | 0.75 | 0.00 | 90 | 1015.1 |
| 20260507062521 | 32 | 228 | 5.0 | 6.0 | 0.00 | 0.75 | 0.00 | 91 | 1015.1 |
| 20260507061520 | 32 | 203 | 4.0 | 5.0 | 0.00 | 0.75 | 0.00 | 92 | 1014.5 |
| 20260507060522 | 32 | 226 | 3.0 | 4.0 | 0.00 | 0.75 | 0.00 | 93 | 1014.2 |
| 20260507055520 | 32 | 205 | 2.0 | 5.0 | 0.00 | 0.75 | 0.75 | 93 | 1013.9 |
| 20260507054520 | 32 | 239 | 2.0 | 5.0 | 0.00 | 0.75 | 0.75 | 93 | 1014.3 |
| 20260507053521 | 32 | 227 | 2.0 | 5.0 | 0.00 | 0.75 | 0.75 | 93 | 1014.4 |
| 20260507052520 | 32 | 222 | 2.0 | 6.0 | 0.00 | 0.75 | 0.75 | 93 | 1014.4 |
| 20260507051519 | 32 | 233 | 1.0 | 7.0 | 0.00 | 0.75 | 0.75 | 92 | 1014.7 |
| 20260507050519 | 32 | 214 | 2.0 | 7.0 | 0.00 | 0.75 | 0.75 | 92 | 1014.8 |
| 20260507045519 | 32 | 213 | 3.0 | 7.0 | 0.00 | 0.75 | 0.75 | 92 | 1014.8 |
| 20260507044543 | 33 | 230 | 2.0 | 7.0 | 0.00 | 0.75 | 0.75 | 91 | 1014.3 |
| 20260507043542 | 33 | 203 | 2.0 | 7.0 | 0.00 | 0.75 | 0.75 | 91 | 1014.0 |
| 20260507042519 | 33 | 206 | 3.0 | 7.0 | 0.00 | 0.75 | 0.75 | 91 | 1014.0 |
| 20260507041521 | 33 | 192 | 3.0 | 7.0 | 0.00 | 0.75 | 0.75 | 91 | 1014.0 |
| 20260507040521 | 33 | 214 | 3.0 | 7.0 | 0.00 | 0.75 | 0.75 | 91 | 1014.0 |
| 20260507035520 | 33 | 211 | 3.0 | 7.0 | 0.00 | 0.75 | 0.75 | 91 | 1014.0 |
| 20260507034521 | 34 | 206 | 3.0 | 7.0 | 0.00 | 0.75 | 0.75 | 91 | 1014.8 |
| 20260507033521 | 34 | 180 | 4.0 | 7.0 | 0.00 | 0.75 | 0.75 | 91 | 1014.9 |
| 20260507032544 | 33 | 199 | 2.0 | 6.0 | 0.00 | 0.75 | 0.75 | 91 | 1014.1 |
| 20260507031541 | 33 | 178 | 3.0 | 6.0 | 0.00 | 0.75 | 0.75 | 91 | 1013.8 |
| 20260507030521 | 33 | 202 | 2.0 | 6.0 | 0.00 | 0.75 | 0.75 | 92 | 1013.7 |
| 20260507025545 | 33 | 196 | 3.0 | 6.0 | 0.00 | 0.75 | 0.75 | 92 | 1013.7 |
| 20260507024521 | 33 | 178 | 2.0 | 5.0 | 0.01 | 0.75 | 0.75 | 92 | 1013.0 |
| 20260507023520 | 33 | 157 | 3.0 | 5.0 | 0.01 | 0.75 | 0.75 | 92 | 1013.2 |
| 20260507022521 | 33 | 182 | 1.0 | 5.0 | 0.01 | 0.75 | 0.75 | 91 | 1013.0 |
| 20260507021521 | 34 | 151 | 1.0 | 5.0 | 0.02 | 0.75 | 0.75 | 88 | 1013.0 |
| 20260507020520 | 35 | 0.0 | 6.0 | 0.02 | 0.75 | 0.75 | 86 | 1013.4 | |
| 20260507015523 | 36 | 182 | 2.0 | 6.0 | 0.02 | 0.75 | 0.75 | 82 | 1013.8 |
| 20260507014521 | 37 | 195 | 2.0 | 6.0 | 0.02 | 0.74 | 0.74 | 82 | 1013.6 |
| 20260507013520 | 37 | 164 | 2.0 | 6.0 | 0.02 | 0.74 | 0.74 | 82 | 1013.7 |
| 20260507012545 | 37 | 177 | 2.0 | 6.0 | 0.03 | 0.74 | 0.74 | 81 | 1013.7 |
| 20260507011521 | 37 | 144 | 2.0 | 6.0 | 0.02 | 0.73 | 0.73 | 81 | 1013.9 |
| 20260507010524 | 38 | 172 | 3.0 | 6.0 | 0.03 | 0.73 | 0.73 | 79 | 1014.0 |
| 20260507005519 | 38 | 211 | 2.0 | 6.0 | 0.04 | 0.73 | 0.73 | 79 | 1014.0 |
| 20260507004521 | 38 | 170 | 2.0 | 6.0 | 0.03 | 0.72 | 0.72 | 77 | 1014.0 |
| 20260507003545 | 39 | 180 | 2.0 | 6.0 | 0.05 | 0.72 | 0.72 | 74 | 1014.4 |
| 20260507002522 | 39 | 186 | 2.0 | 6.0 | 0.05 | 0.71 | 0.71 | 75 | 1014.4 |
| 20260507001519 | 39 | 165 | 3.0 | 6.0 | 0.07 | 0.71 | 0.71 | 76 | 1014.2 |
| 20260507000520 | 39 | 184 | 3.0 | 6.0 | 0.08 | 0.70 | 0.70 | 76 | 1014.2 |
| 20260506235520 | 39 | 200 | 2.0 | 7.0 | 0.09 | 0.69 | 0.69 | 76 | 1014.3 |
| 20260506234546 | 39 | 242 | 3.0 | 7.0 | 0.10 | 0.69 | 0.69 | 73 | 1014.4 |
| 20260506233545 | 39 | 202 | 3.0 | 7.0 | 0.10 | 0.67 | 0.67 | 74 | 1014.4 |
| 20260506232520 | 38 | 169 | 2.0 | 7.0 | 0.10 | 0.66 | 0.66 | 74 | 1014.5 |
| 20260506231522 | 39 | 224 | 2.0 | 7.0 | 0.10 | 0.64 | 0.64 | 75 | 1014.7 |
| 20260506230520 | 39 | 237 | 3.0 | 7.0 | 0.09 | 0.63 | 0.62 | 74 | 1014.8 |
| 20260506225544 | 38 | 209 | 2.0 | 7.0 | 0.09 | 0.61 | 0.60 | 75 | 1014.3 |
| 20260506224521 | 36 | 232 | 1.0 | 7.0 | 0.10 | 0.61 | 0.59 | 81 | 1014.3 |
| 20260506223522 | 37 | 214 | 2.0 | 7.0 | 0.10 | 0.60 | 0.57 | 79 | 1014.6 |
| 20260506222518 | 36 | 138 | 2.0 | 7.0 | 0.11 | 0.59 | 0.56 | 80 | 1014.2 |
| 20260506221519 | 36 | 198 | 1.0 | 7.0 | 0.11 | 0.57 | 0.54 | 79 | 1014.2 |
| 20260506220521 | 37 | 215 | 4.0 | 7.0 | 0.13 | 0.57 | 0.53 | 78 | 1014.5 |
| 20260506215543 | 36 | 180 | 2.0 | 6.0 | 0.14 | 0.56 | 0.51 | 81 | 1014.5 |
| 20260506214519 | 37 | 200 | 3.0 | 6.0 | 0.14 | 0.54 | 0.49 | 79 | 1015.0 |
| 20260506213519 | 37 | 194 | 2.0 | 6.0 | 0.16 | 0.53 | 0.47 | 81 | 1014.8 |
| 20260506212521 | 36 | 144 | 2.0 | 4.0 | 0.18 | 0.52 | 0.45 | 81 | 1014.5 |
| 20260506211520 | 37 | 103 | 1.0 | 7.0 | 0.20 | 0.50 | 0.43 | 79 | 1015.0 |
| 20260506210520 | 38 | 195 | 2.0 | 7.0 | 0.21 | 0.48 | 0.40 | 78 | 1015.4 |
| 20260506205521 | 37 | 155 | 2.0 | 7.0 | 0.23 | 0.45 | 0.37 | 81 | 1015.3 |
| 20260506204518 | 37 | 164 | 1.0 | 7.0 | 0.27 | 0.43 | 0.35 | 82 | 1015.3 |
| 20260506203519 | 35 | 175 | 1.0 | 7.0 | 0.26 | 0.40 | 0.31 | 82 | 1015.0 |
| 20260506202521 | 38 | 48 | 1.0 | 7.0 | 0.22 | 0.36 | 0.27 | 81 | 1015.8 |
| 20260506201521 | 37 | 87 | 3.0 | 7.0 | 0.19 | 0.32 | 0.23 | 79 | 1015.7 |
| 20260506200524 | 36 | 77 | 3.0 | 7.0 | 0.16 | 0.28 | 0.19 | 83 | 1015.6 |
| 20260506195543 | 34 | 45 | 4.0 | 7.0 | 0.11 | 0.24 | 0.14 | 88 | 1015.1 |
| 20260506194521 | 37 | 45 | 0.0 | 1.0 | 0.05 | 0.18 | 0.08 | 84 | 1015.6 |
| 20260506193519 | 37 | 0.0 | 0.0 | 0.02 | 0.16 | 0.05 | 82 | 1015.7 | |
| 20260506192524 | 44 | 0.0 | 0.0 | 0.02 | 0.16 | 0.05 | 69 | 1017.4 | |
| 20260506191519 | 44 | 0.0 | 0.0 | 0.02 | 0.16 | 0.04 | 69 | 1017.6 | |
| 20260506190520 | 42 | 0.0 | 0.0 | 0.01 | 0.15 | 0.03 | 72 | 1017.3 | |
| 20260506185523 | 39 | 0.0 | 0.0 | 0.01 | 0.16 | 0.03 | 77 | 1016.7 | |
| 20260506184520 | 38 | 0.0 | 0.0 | 0.02 | 0.16 | 0.03 | 81 | 1016.3 | |
| 20260506183520 | 37 | 0.0 | 0.0 | 0.02 | 0.16 | 0.03 | 82 | 1015.9 | |
| 20260506182523 | 37 | 0.0 | 0.0 | 0.02 | 0.16 | 0.03 | 82 | 1016.0 | |
| 20260506181521 | 38 | 0.0 | 0.0 | 0.01 | 0.15 | 0.02 | 81 | 1016.4 | |
| 20260506180545 | 36 | 0.0 | 0.0 | 0.01 | 0.15 | 0.02 | 84 | 1015.9 | |
| 20260506175521 | 35 | 0.0 | 0.0 | 0.01 | 0.15 | 0.02 | 86 | 1015.5 | |
| 20260506174521 | 35 | 0.0 | 0.0 | 0.00 | 0.14 | 0.01 | 87 | 1015.2 | |
| 20260506173519 | 35 | 0.0 | 0.0 | 0.00 | 0.14 | 0.01 | 89 | 1015.2 | |
| 20260506172521 | 35 | 0.0 | 0.0 | 0.00 | 0.14 | 0.01 | 90 | 1014.9 | |
| 20260506171522 | 36 | 0.0 | 0.0 | 0.00 | 0.14 | 0.01 | 88 | 1015.2 | |
| 20260506170521 | 38 | 0.0 | 0.0 | 0.01 | 0.14 | 0.01 | 85 | 1015.5 | |
| 20260506165520 | 39 | 0.0 | 0.0 | 0.01 | 0.15 | 0.01 | 83 | 1015.9 | |
| 20260506164520 | 39 | 0.0 | 0.0 | 0.01 | 0.15 | 0.01 | 84 | 1015.7 | |
| 20260506163520 | 37 | 0.0 | 0.0 | 0.01 | 0.15 | 0.01 | 88 | 1015.5 | |
| 20260506162520 | 36 | 0.0 | 0.0 | 0.01 | 0.15 | 0.01 | 90 | 1014.7 | |
| 20260506161544 | 34 | 0.0 | 0.0 | 0.01 | 0.15 | 0.01 | 93 | 1014.2 | |
| 20260506160522 | 34 | 0.0 | 0.0 | 0.00 | 0.14 | 0.00 | 94 | 1014.2 | |
| 20260506155520 | 33 | 0.0 | 0.0 | 0.00 | 0.14 | 0.00 | 95 | 1014.2 | |
| 20260506154543 | 34 | 0.0 | 0.0 | 0.00 | 0.14 | 0.00 | 94 | 1014.2 | |
| 20260506153520 | 33 | 0.0 | 0.0 | 0.00 | 0.14 | 0.00 | 96 | 1013.9 | |
| 20260506152520 | 35 | 0.0 | 0.0 | 0.00 | 0.15 | 0.00 | 93 | 1014.1 | |
| 20260506151521 | 36 | 0.0 | 0.0 | 0.00 | 0.15 | 0.00 | 92 | 1014.1 | |
| 20260506150520 | 35 | 0.0 | 0.0 | 0.00 | 0.15 | 0.00 | 93 | 1014.1 | |
| 20260506145521 | 35 | 0.0 | 0.0 | 0.00 | 0.15 | 0.00 | 95 | 1014.1 | |
| 20260506144521 | 35 | 0.0 | 0.0 | 0.00 | 0.15 | 0.00 | 97 | 1013.8 | |
| 20260506143520 | 33 | 0.0 | 0.0 | 0.00 | 0.15 | 0.00 | 99 | 1013.6 | |
| 20260506142519 | 33 | 0.0 | 0.0 | 0.00 | 0.16 | 0.00 | 99 | 1013.6 | |
| 20260506141520 | 32 | 0.0 | 0.0 | 0.00 | 0.16 | 0.00 | 99 | 1013.4 | |
| 20260506140520 | 32 | 0.0 | 0.0 | 0.00 | 0.16 | 0.00 | 99 | 1013.5 |